Home   Weather   Jastrzębie Zdrój   Past weeks

Flag for Poland Past Weather in Jastrzębie Zdrój, Poland — Yesterday and Last 2 Weeks

Now
61 °F

Passing clouds.


Feels Like: 61 °F
Forecast: 49 / 70 °F
Wind: N/A

Location: Ostrava / Mosnov

Current Time: May 26, 2017 at 11:05:10 pm

Latest Report: May 26, 2017 at 10:00 pm


Visibility: 19 mi

Pressure: 30.09 "Hg

Humidity: 68%

Dew Point: 51 °F

Location of Jastrzębie ZdrójLocation

Past Weather in Jastrzębie Zdrój — Graph

°F

Jastrzębie Zdrój Temperature Yesterday

Maximum temperature yesterday: 64 °F (at 3:00 pm)
Minimum temperature yesterday: 51 °F (at 3:00 am)
Average temperature yesterday: 55 °F

High & Low Weather Summary for the Past Weeks

 TemperatureHumidityPressure
High81 °F (May 19, 4:00 pm)98% (May 14, 5:00 am)30.42 "Hg (May 14, 5:00 am)
Low44 °F (May 17, 4:00 am)30% (May 19, 4:00 pm)29.62 "Hg (May 12, 5:00 am)
Average60 °F71%30.07 "Hg
* Reported May 11 9:00 pm — May 26 9:00 pm, Jastrzębie Zdrój. Weather by CustomWeather, © 2017

Note: Actual official high and low records may vary slightly from our data, if they occured in-between our weather recording intervals... More about our weather records

Advertising

Jastrzębie Zdrój Weather History for the Previous 24 Hours

Scroll right to see more
 ConditionsComfort  
Time TempWeatherWind HumidityBarometerVisibility
9:00 pm
Fri, May 26
62 °FPassing clouds.N/A65%30.07 "Hg19 mi
8:00 pm65 °FScattered clouds.2 mph61%30.06 "Hg22 mi
5:00 pm67 °FPartly sunny.5 mph51%30.08 "Hg25 mi
4:00 pm68 °FPartly sunny.6 mph49%30.09 "Hg25 mi
3:00 pm68 °FPartly sunny.5 mph45%30.09 "Hg25 mi
2:00 pm67 °FPartly sunny.3 mph48%30.10 "Hg25 mi
1:00 pm66 °FPartly sunny.3 mph50%30.11 "Hg25 mi
12:00 pm64 °FPartly sunny.3 mph52%30.12 "Hg19 mi
11:00 am62 °FPartly sunny.5 mph57%30.12 "Hg19 mi
10:00 am60 °FPartly sunny.3 mph61%30.13 "Hg19 mi
9:00 am60 °FScattered clouds.3 mph64%30.13 "Hg16 mi
8:00 am59 °FPartly sunny.N/A73%30.13 "Hg16 mi
7:00 am56 °FScattered clouds.N/A76%30.13 "Hg16 mi
6:00 am51 °FPartly sunny.1 mph92%30.14 "Hg12 mi
5:00 am52 °FPartly sunny.1 mph89%30.13 "Hg12 mi
4:00 am53 °FOvercast.2 mph88%30.12 "Hg12 mi
3:00 am53 °FOvercast.2 mph90%30.12 "Hg12 mi
2:00 am53 °FOvercast.2 mph88%30.13 "Hg12 mi
1:00 am54 °FOvercast.2 mph86%30.14 "Hg12 mi
12:00 am54 °FOvercast.1 mph85%30.14 "Hg12 mi
11:00 pm
Thu, May 25
56 °FOvercast.N/A77%30.13 "Hg12 mi
Weather by CustomWeather, © 2017

See weather overviewHow to use our weather pages